TIME,DELAY(SENSOR),PRES,T(CTD),SAL,OXYGEN,RAWTEMP,T(OPTODE),TCPHASE,FLUOR,BETA(BETA700),BETA(BETA412),BETA(BETA440),CDOM,C(CSC),ED(ED411.90),ED(ED443.80),ED(ED489.40),ED(ED554.70),LU(LU412.20),LU(LU443.80),LU(LU489.40),LU(LU555.00),COMP,TILTX,TILTX(TILTY),CHECK
1364919410,5806,497.6900024414062500,13.6128997802734380,35.7668991088867200,175.6638946533203000,300.8424072265625000,13.6086196899414060,36.2647399902343750,92,1283,94,77,71,11254,2146958189,2147513298,2147277476,2147480685,2147082523,2146936219,2147672338,2147125165,244,-1,8,2734
1364919545,5804,485.9599914550781000,13.9541997909545900,35.8198013305664060,177.9317932128906200,289.2460937500000000,13.9585800170898440,35.9317512512207000,94,1300,93,76,70,11255,2146959689,2147518317,2147276333,2147479341,2147079881,2146946038,2147669568,2147124114,2960,-2,8,863
1364919666,5802,475.3200073242187500,14.1293001174926760,35.8474006652832000,179.7178955078125000,283.9187927246094000,14.1192903518676760,35.7290115356445300,92,1222,93,76,70,11249,2146961380,2147517284,2147277860,2147475666,2147083026,2146946331,2147673216,2147123072,2245,-1,8,14073
1364919790,5805,463.8299865722656000,14.3242998123168950,35.8786010742187500,180.8603973388672000,277.4023132324219000,14.3158102035522460,35.5542411804199200,91,1263,93,78,71,11252,2146957650,2147517065,2147274925,2147473334,2147082989,2146948114,2147669769,2147123309,2238,-2,8,8691
1364919911,5805,452.7200012207031000,14.4306001663208000,35.8955993652343750,181.8224945068359400,273.0882873535156000,14.4458904266357420,35.4244613647460940,93,1296,93,78,69,11250,2146958080,2147513060,2147276480,2147476452,2147081728,2146944795,2147671277,2147125430,1319,-1,8,44304
1364920021,5805,442.5599975585937500,14.5727996826171880,35.9193992614746100,182.3381958007812500,268.9211120605469000,14.5715198516845700,35.3275909423828100,93,1288,93,77,70,11254,2146958491,2147519835,2147275446,2147474752,2147082486,2146950564,2147669632,2147122880,837,-1,8,34765
1364920145,5807,430.6300048828125000,14.6611995697021480,35.9339981079101560,183.0876007080078000,265.4953918457031000,14.6747903823852540,35.2267799377441400,93,1266,93,78,70,11252,2146959533,2147517092,2147275264,2147472886,2147083209,2146947574,2147665243,2147121837,738,-1,8,59681
1364920255,5806,420.1199951171875000,14.8593997955322270,35.9665985107421900,184.3719024658203000,259.3163146972656000,14.8610296249389650,35.0508003234863300,92,1254,92,76,70,11251,2146961398,2147514505,2147275300,2147473426,2147084772,2146950976,2147664402,2147122505,154,-1,8,52056
1364920365,5806,409.6000061035156000,14.9773998260498050,35.9852981567382800,185.2263946533203000,255.4998016357422000,14.9760503768920900,34.9378013610839840,92,1234,93,76,70,11254,2146960009,2147516434,2147274934,2147469110,2147080457,2146947099,2147666276,2147122651,866,-1,8,3314
1364920477,5807,399.2000122070312500,15.2746000289917000,36.0345993041992200,186.5964050292968800,245.1640930175781200,15.2874898910522460,34.6968803405761700,92,1232,92,76,69,11250,2146962496,2147515264,2147274075,2147468297,2147083218,2146948726,2147664996,2147121435,934,-1,8,3023
1364920598,5807,388.5599975585937500,15.4675998687744140,36.0681991577148440,188.5986938476562500,238.0357055664062500,15.5022602081298830,34.4635009765625000,93,1379,93,76,70,11249,2146962313,2147517650,2147271780,2147469732,2147084708,2146949696,2147664201,2147124635,76,-2,8,20138
1364920733,5803,377.1099853515625000,15.6865997314453120,36.1007995605468750,190.1396026611328000,230.8285064697265600,15.7194099426269530,34.2608108520507800,92,1302,92,77,69,11251,2146958171,2147514596,2147273792,2147465901,2147085860,2146947309,2147658075,2147125147,2496,-1,8,48121
1364920865,5804,366.4599914550781000,15.9219999313354500,36.1362991333007800,192.4333038330078000,224.3323059082031200,15.9151296615600590,34.0234107971191400,91,1285,92,76,70,11253,2146960192,2147515958,2147274925,2147465554,2147083958,2146948790,2147661686,2147124160,2261,-2,9,44569
1364921008,5805,355.3900146484375000,16.1359004974365230,36.1730995178222660,194.1130065917968800,217.2639007568359400,16.1280994415283200,33.8176002502441400,91,1270,92,77,70,11248,2146956315,2147518043,2147273517,2147463780,2147082349,2146951789,2147659666,2147121993,2491,-1,9,48009
1364921132,5804,344.0100097656250000,16.2877998352050780,36.1958999633789060,195.9990997314453000,211.5016021728515600,16.3017196655273440,33.6200790405273440,90,1271,93,76,69,11249,2146958006,2147513636,2147274368,2147461860,2147085001,2146953517,2147663341,2147125622,3389,-1,8,2511
1364921242,5807,332.4400024414062500,16.5575008392334000,36.2374000549316400,198.9452972412109400,203.0236053466797000,16.5572109222412100,33.3218994140625000,90,1211,93,77,69,11246,2146958208,2147513115,2147272521,2147464731,2147084434,2146951369,2147657810,2147118198,2804,-1,9,65345
1364921341,5807,322.0100097656250000,16.7817001342773440,36.2647018432617200,200.3406066894531200,195.6705017089843800,16.7788391113281250,33.1354598999023440,93,1256,93,78,69,11251,2146959451,2147514660,2147272329,2147465142,2147080822,2146958692,2147656923,2147118454,3089,-2,8,59716
1364921459,5807,311.5700073242187500,17.0676002502441400,36.2975006103515600,202.4268951416015600,186.2635955810547000,17.0624408721923830,32.8808403015136700,91,1251,93,77,69,11246,2146963218,2147513270,2147270244,2147459876,2147082742,2146954148,2147657920,2147126564,2761,-1,8,20865
1364921613,5806,301.3299865722656000,17.4109001159667970,36.3367004394531250,204.5343933105468800,174.3955993652343800,17.4203891754150400,32.5935592651367200,88,1245,93,78,69,11246,2146960612,2147512676,2147270921,2147460534,2147081810,2146956406,2147652352,2147125458,780,-1,8,62290
1364921778,5803,289.7799987792969000,17.7910003662109380,36.3782005310058600,208.0917053222656200,162.2512054443359400,17.7868690490722660,32.2241287231445300,89,1207,93,77,68,11241,2146958848,2147513782,2147269010,2147456045,2147082688,2146958025,2147656978,2147127762,685,-2,8,37140
1364921921,5805,278.4500122070312500,18.1982994079589840,36.4249992370605500,212.1625061035156200,148.7010955810547000,18.1960792541503900,31.8138694763183600,88,1187,93,78,68,11237,2146956160,2147515355,2147268845,2147457920,2147078244,2146960036,2147656649,2147123986,2583,-1,8,8123
1364922079,5806,265.1000061035156000,18.9524002075195300,36.5575981140136700,251.7503051757812500,123.9756011962890600,18.9437904357910160,29.5505409240722660,92,1249,98,83,62,11157,2146953188,2147515035,2147265133,2147453860,2147077101,2146964891,2147656301,2147126683,2505,-1,8,27187
1364922189,5803,253.7100067138672000,18.9948005676269530,36.5646018981933600,258.8825988769531000,122.5045013427734400,18.9883308410644530,29.2226791381835940,92,1175,98,84,62,11140,2146957549,2147515702,2147264868,2147451401,2147079012,2146969078,2147657170,2147128576,2057,-1,8,42490
1364922288,5804,243.0899963378906200,18.9995002746582030,36.5672988891601560,260.2275085449219000,122.2841033935546900,18.9950008392334000,29.1626892089843750,93,1175,99,83,61,11143,2146956644,2147514861,2147267904,2147450806,2147080082,2146974308,2147664621,2147129773,1168,-2,9,41541
1364922406,5807,231.0000000000000000,19.0058994293212900,36.5671997070312500,260.4656982421875000,122.0667037963867200,19.0015792846679700,29.1498908996582030,92,1217,99,83,61,11143,2146955574,2147516873,2147264292,2147448164,2147075236,2146975158,2147681252,2147126948,790,-1,8,40525
1364922527,5805,220.1000061035156200,19.0088996887207030,36.5680007934570300,260.7771911621094000,121.9794998168945300,19.0042190551757800,29.1357002258300780,92,1248,100,83,62,11138,2146958253,2147514066,2147266733,2147446674,2147077257,2146981632,2147694564,2147126637,2949,-2,8,25781
1364922651,5805,208.6999969482422000,19.0074005126953120,36.5671005249023440,260.8067932128906000,122.0327987670898400,19.0026092529296880,29.1351795196533200,92,1262,98,83,61,11140,2146955419,2147516644,2147266797,2147447277,2147084050,2146996150,2147725010,2147132608,2141,-1,9,38586
1364922761,5807,198.5399932861328000,19.0275993347167970,36.5693016052246100,260.8937072753906000,121.4016036987304700,19.0217208862304700,29.1233291625976560,95,1255,99,85,62,11135,2146958061,2147513472,2147266806,2147447168,2147086537,2147012050,2147761664,2147130724,1785,-2,9,51601
1364922816,5806,193.5000000000000000,19.0265007019042970,36.5670013427734400,260.2803039550781000,121.3814010620117200,19.0223293304443360,29.1488990783691400,93,1251,99,83,61,11158,2146956114,2147515949,2147266724,2147446326,2147085220,2147023222,2147777654,2147131949,1454,-1,8,4548
1364922871,5804,188.5000000000000000,19.0366001129150400,36.5677986145019500,259.3703002929687500,121.0472030639648400,19.0324497222900400,29.1831398010253900,94,1313,97,82,63,11164,2146956260,2147518372,2147268745,2147449856,2147085202,2147044022,2147808201,2147134683,1127,-2,9,59569
1364922926,5805,183.5800018310547000,19.0377006530761720,36.5668983459472660,259.1900024414062500,121.0595016479492200,19.0320796966552730,29.1910190582275400,92,1241,96,80,61,11161,2146957074,2147513874,2147269028,2147444964,2147096137,2147061513,2147849956,2147134866,970,-1,8,42853
1364923005,5807,177.1799926757812500,19.0380992889404300,36.5671997070312500,259.0036010742187500,120.9891967773437500,19.0342102050781250,29.1979598999023440,92,1205,97,81,62,11162,2146958006,2147518802,2147273307,2147446098,2147102656,2147089874,2147900507,2147141037,765,-2,9,47839
1364923060,5806,173.1900024414062500,19.0419998168945300,36.5679016113281250,259.1496887207031000,120.8746032714843800,19.0376796722412100,29.1902103424072270,93,1246,98,83,62,11164,2146959798,2147517229,2147273170,2147445568,2147103131,2147114166,2147935314,2147139346,331,-2,9,25252
1364923126,5805,168.4799957275390600,19.0424003601074220,36.5685997009277340,259.3541870117187500,120.8307037353515600,19.0389995574951170,29.1812095642089840,91,1275,98,82,62,11168,2146959433,2147522496,2147273600,2147446262,2147111003,2147142875,2147990162,2147145682,3521,-2,9,23444
1364923181,5804,164.5899963378906200,19.0445995330810550,36.5682983398437500,259.2249145507812500,120.7624969482421900,19.0410709381103500,29.1855297088623050,91,1268,97,81,62,11165,2146959881,2147519981,2147276754,2147445577,2147115913,2147170578,2148042422,2147146349,3141,-2,9,41416
1364923236,5807,160.7100067138672000,19.0452995300292970,36.5684013366699200,259.0278930664062500,120.6840972900390600,19.0434398651123050,29.1929702758789060,91,1239,97,82,63,11166,2146958235,2147519049,2147275520,2147445366,2147131318,2147207149,2148106084,2147146505,2705,-2,9,51203
1364923314,5805,155.6999969482422000,19.0543994903564450,36.5694999694824200,259.1108093261719000,120.4580993652343800,19.0502891540527340,29.1865901947021500,91,1248,97,81,62,11166,2146958528,2147523977,2147277101,2147447588,2147137782,2147252370,2148183405,2147154194,2527,-2,9,40474
1364923380,5806,152.0500030517578000,19.0587997436523440,36.5705986022949200,259.8789978027344000,120.3271026611328100,19.0542507171630860,29.1522693634033200,92,1281,97,82,63,11161,2146959972,2147525814,2147280630,2147446582,2147144512,2147300461,2148257846,2147160466,2419,-2,9,44358
1364923446,5803,148.4400024414062500,19.0604000091552730,36.5713005065918000,260.1059875488281000,120.2582015991211000,19.0563392639160160,29.1417999267578120,90,1252,98,82,62,11163,2146958811,2147528128,2147285092,2147448365,2147165485,2147347629,2148335588,2147164315,2353,-2,9,23857
1364923523,5804,144.3000030517578000,19.0622997283935550,36.5714988708496100,260.5086975097656000,120.1806030273437500,19.0586891174316400,29.1237792968750000,92,1246,98,81,62,11158,2146959680,2147530057,2147289700,2147445897,2147177782,2147412370,2148444882,2147173321,2298,-2,9,61173
1364923603,5806,140.0500030517578000,19.0638999938964840,36.5721015930175800,260.5935058593750000,120.1239013671875000,19.0604095458984380,29.1196403503417970,92,1257,96,81,62,11155,2146962358,2147532672,2147292973,2147445174,2147203721,2147494756,2148574409,2147180370,2238,-2,9,51699
1364923669,5806,136.5800018310547000,19.0673999786376950,36.5722999572753900,260.9074096679687500,120.0123977661132800,19.0637798309326170,29.1047306060791000,92,1231,97,82,62,11156,2146962934,2147532571,2147298898,2147447817,2147227501,2147566537,2148694619,2147187483,2293,-2,9,32427
1364923746,5806,132.6000061035156200,19.0720005035400400,36.5736999511718750,261.2705993652344000,119.8573989868164000,19.0684795379638670,29.0875301361084000,90,1252,98,82,61,11150,2146963035,2147534427,2147303936,2147448758,2147261293,2147688301,2148889920,2147196525,1997,-2,9,59223
1364923823,5807,128.6699981689453000,19.0793991088867200,36.5741996765136700,261.3815002441406000,119.5997009277343800,19.0762805938720700,29.0795898437500000,92,1280,99,83,61,11139,2146963273,2147532160,2147295643,2147446912,2147255862,2147596580,2148701897,2147187227,1729,-2,9,19798
1364923903,5805,124.6900024414062500,19.0948009490966800,36.5755004882812500,261.8872070312500000,119.1483993530273400,19.0899505615234380,29.0524692535400400,92,1249,98,82,62,11139,2146964132,2147543497,2147317046,2147448384,2147341942,2147891593,2149215808,2147216384,1428,-2,9,47051
1364923991,5801,120.4400024414062500,19.0983009338378900,36.5756988525390600,261.8768920898437500,119.0039978027343800,19.0943202972412100,29.0512008666992200,93,1265,99,83,62,11139,2146971218,2147547675,2147328749,2147450441,2147399753,2148061769,2149480027,2147232740,1093,-2,9,23994
1364924068,5806,116.6999969482421900,19.1033992767334000,36.5754013061523440,261.8057861328125000,118.8720016479492200,19.0983200073242200,29.0525093078613280,92,1258,101,83,62,11143,2146970285,2147549732,2147336100,2147450870,2147457627,2148216420,2149713152,2147250889,732,-2,9,30330
1364924156,5801,112.3399963378906200,19.1046009063720700,36.5772018432617200,262.0394897460937500,118.7772979736328100,19.1011791229248050,29.0414695739746100,91,1254,97,82,62,11145,2146969142,2147555648,2147346852,2147450587,2147554294,2148451053,2150066861,2147273380,3528,-2,9,8396
1364924235,5805,108.3399963378906200,19.1035003662109380,36.5750007629394500,261.9567871093750000,118.8722000122070300,19.0983104705810550,29.0460395812988280,92,1245,97,81,60,11154,2146975872,2147564662,2147356297,2147451812,2147651483,2148683730,2150405394,2147299913,2947,-2,9,7692
1364924312,5809,104.4400024414062500,19.1026000976562500,36.5750999450683600,261.4854125976562500,118.8423995971679700,19.0992107391357420,29.0654296875000000,92,1320,97,81,61,11154,2146977956,2147573650,2147369682,2147449874,2147779638,2148978496,2150826011,2147331126,2744,-2,9,60831
1364924389,5804,100.4300003051757800,19.1110000610351560,36.5746002197265600,261.5700073242187500,118.6033020019531200,19.1064491271972660,29.0589103698730470,92,1270,97,82,62,11152,2146981558,2147581659,2147385344,2147449545,2147925997,2149309238,2151296128,2147369097,2431,-2,8,2786
1364924444,5806,97.5100021362304700,19.1215991973876950,36.5769004821777340,262.0317993164062500,118.2713012695312500,19.1165103912353500,29.0352001190185550,92,1264,98,83,62,11142,2146991460,2147590400,2147398363,2147451163,2148058806,2149578212,2151692141,2147405101,2144,-2,9,34043
1364924499,5810,94.6100006103515600,19.1261997222900400,36.5769004821777340,262.1115112304687500,118.1265029907226600,19.1208992004394530,29.0299205780029300,94,1273,98,82,61,11138,2146993088,2147600822,2147416256,2147451410,2148217965,2149915648,2152167789,2147446665,1759,-2,9,41798
1364924556,5804,91.6299972534179700,19.1315002441406250,36.5778999328613300,261.9367065429687500,117.9252014160156200,19.1269893646240230,29.0348396301269530,93,1285,98,81,62,11139,2146999716,2147609270,2147435154,2147456201,2148398253,2150253586,2152658514,2147489499,1540,-2,9,55561
1364924611,5805,88.7699966430664000,19.1331996917724600,36.5777015686035160,262.2231140136719000,117.8651962280273400,19.1288108825683600,29.0220298767089840,95,1283,98,82,62,11125,2147007789,2147621074,2147461467,2147455689,2148623104,2150688411,2153264850,2147551625,1303,-2,9,28737
1364924666,5805,85.8600006103515600,19.1359004974365230,36.5792007446289060,262.4696044921875000,117.7442016601562500,19.1324691772460940,29.0102100372314450,93,1284,99,83,61,11123,2146994075,2147590061,2147392731,2147452041,2148173906,2149517074,2151358016,2147404635,1365,-2,9,22743
1364924721,5805,82.9100036621093800,19.1368007659912100,36.5787010192871100,262.7398986816406000,117.6967010498046900,19.1339092254638670,28.9982795715332030,95,1298,100,84,62,11115,2147025426,2147654125,2147514925,2147458925,2149160640,2151673124,2154614802,2147696475,1194,-2,9,25173
1364924776,5807,79.9899978637695300,19.1385002136230470,36.5786018371582000,263.1577148437500000,117.6570968627929700,19.1351108551025400,28.9802894592285160,96,1286,100,82,63,11103,2147035117,2147668233,2147543954,2147466560,2149472036,2152205010,2155322121,2147785554,961,-2,9,48558
1364924831,5805,77.0899963378906200,19.1404991149902340,36.5792007446289060,263.5062866210937500,117.5885009765625000,19.1371898651123050,28.9648303985595700,96,1284,98,85,62,11097,2147049581,2147683867,2147574098,2147471104,2149854080,2152820406,2156165869,2147894985,732,-2,9,44591
1364924888,5804,74.0699996948242200,19.1427993774414060,36.5796012878418000,263.6744079589844000,117.5091018676757800,19.1396007537841800,28.9570198059082030,96,1306,100,84,62,11085,2147063213,2147710345,2147612068,2147476498,2150309997,2153568393,2157131501,2148026669,416,-2,9,38087
1364924943,5805,71.1999969482421900,19.1439990997314450,36.5797004699707000,264.1099853515625000,117.4693984985351600,19.1408004760742200,28.9381294250488280,95,1289,100,83,61,11081,2147078692,2147733302,2147645248,2147480694,2150824045,2154371510,2158175542,2148176667,77,-1,8,10987
1364924998,5804,68.3899993896484400,19.1432991027832030,36.5803985595703100,264.1931152343750000,117.4624023437500000,19.1410102844238280,28.9348506927490230,96,1274,98,83,62,11084,2147100297,2147757787,2147687497,2147485046,2151446875,2155340461,2159418139,2148366281,3511,-1,9,46904
1364925053,5804,65.5699996948242200,19.1439990997314450,36.5803985595703100,264.4740905761719000,117.4410018920898400,19.1416606903076170,28.9228706359863280,96,1237,98,83,61,11077,2147123666,2147788178,2147730532,2147489984,2152113033,2156337920,2160695789,2148572699,3274,-2,9,17399
1364925108,5805,62.7900009155273440,19.1450004577636720,36.5806007385253900,264.3919067382812500,117.3996963500976600,19.1429100036621100,28.9258003234863280,96,1278,99,84,59,11077,2147150564,2147825051,2147782838,2147491099,2152977069,2157669878,2162346377,2148843648,2987,-2,9,37859
1364925163,5808,60.0299987792968750,19.1466999053955080,36.5806007385253900,264.7409973144531000,117.3402023315429700,19.1447105407714840,28.9104595184326170,94,1267,100,83,61,11079,2147185078,2147859044,2147834432,2147501686,2153903597,2158985755,2163968877,2149141458,2760,-2,9,31944
1364925220,5807,57.1699981689453100,19.1478996276855470,36.5797996520996100,264.9158935546875000,117.3151016235351600,19.1454696655273440,28.9030494689941400,96,1278,99,84,62,11073,2147225307,2147911826,2147912457,2147512155,2155144502,2160778496,2166143506,2149552804,2651,-2,9,1665
1364925275,5804,54.4000015258789060,19.1499004364013670,36.5811004638671900,264.9708862304687500,117.2002029418945300,19.1489505767822270,28.8991699218750000,98,1294,99,84,61,11061,2147268699,2147973961,2147997394,2147525933,2156560173,2162722093,2168448310,2150036288,2495,-1,9,34718
1364925417,5804,48.3400001525878900,19.1550006866455080,36.5794982910156250,265.7658081054687500,117.0388031005859400,19.1538391113281250,28.8643093109130860,99,1328,99,84,60,11046,2147401828,2148131702,2148226358,2147566198,2160550720,2168137325,2174780827,2151481609,2200,-2,9,63283
1364925451,5804,46.6899986267089840,19.1546001434326170,36.5796012878418000,265.9847106933594000,117.0553970336914000,19.1533393859863280,28.8556194305419920,101,1305,100,84,62,11037,2147451282,2148190656,2148316781,2147588617,2162064667,2170027849,2177029933,2152067977,1969,-2,9,52878
1364925496,5804,44.4500007629394500,19.1574993133544920,36.5788002014160160,265.9155883789062500,116.9253997802734400,19.1572704315185550,28.8566093444824220,101,1297,100,84,61,11038,2147523940,2148278180,2148441910,2147629440,2164104155,2172653293,2180043355,2152880621,1655,-2,9,26119
1364925530,5805,42.7500000000000000,19.1590003967285160,36.5775985717773440,265.9999084472656000,116.8729019165039000,19.1588592529296880,28.8525199890136720,101,1289,100,84,61,11040,2147584841,2148348214,2148553152,2147668032,2165971949,2174976850,2182704466,2153601005,1525,-2,9,58530
1364925575,5806,40.4500007629394500,19.1602993011474600,36.5765991210937500,266.4943847656250000,116.8135986328125000,19.1606597900390620,28.8314990997314450,102,1306,101,84,62,11034,2147681920,2148450825,2148710720,2147734811,2168726976,2178348086,2186426322,2154731218,1383,-1,9,7480
1364925608,5803,38.7099990844726560,19.1616992950439450,36.5750999450683600,266.3638916015625000,116.7465972900390600,19.1626892089843750,28.8359508514404300,101,1277,99,85,62,11022,2147756050,2148531958,2148812781,2147754002,2170978752,2181032704,2189353453,2155738614,1480,-2,9,13114
1364925653,5806,36.4599990844726560,19.1623992919921880,36.5737991333007800,266.7796020507812500,116.6837005615234400,19.1646003723144530,28.8181800842285160,102,1295,101,84,63,11024,2147865197,2148656173,2148978971,2147818907,2174256036,2184942116,2193560932,2157197019,1456,-2,9,4812
1364925698,5805,34.4099998474121100,19.1627998352050780,36.5732002258300800,266.9883117675781000,116.6250991821289000,19.1663703918457030,28.8088703155517580,102,1262,102,84,61,11007,2147983149,2148767369,2149164964,2147952585,2177498642,2188583250,2197414582,2158740672,1254,-2,9,39522
1364925743,5806,32.3699989318847660,19.1641998291015620,36.5718002319335940,267.7528076171875000,116.5507965087890600,19.1686191558837900,28.7766609191894530,102,1285,101,85,61,10988,2148128978,2148925860,2149429732,2148182244,2181629942,2193506870,2202737572,2160584813,988,-2,9,21745
1364925788,5806,30.3299999237060550,19.1644992828369140,36.5717010498046900,268.2196960449219000,116.4992980957031200,19.1701793670654300,28.7568092346191400,101,1265,102,84,61,10978,2148280722,2149082166,2149652004,2148366372,2185600996,2197718171,2206914980,2162589184,845,-1,9,49979
1364925821,5808,28.7900009155273440,19.1660003662109380,36.5713996887207000,268.7453918457031000,116.3936996459961000,19.1733798980712900,28.7342700958251950,99,1273,105,85,61,10969,2148433673,2149234642,2149866532,2148526656,2190256000,2203242386,2212759369,2164861330,712,-2,8,319
1364925867,5807,26.6599998474121100,19.1688995361328120,36.5704994201660160,269.2318115234375000,116.2270965576171900,19.1784305572509770,28.7122592926025400,99,1276,103,87,62,10963,2148625481,2149407552,2150032676,2148507346,2195127442,2208408914,2217841133,2167275867,385,-1,8,21117
